Tracking 30995 objects as of 5-Jul-2025
HD Live streaming from Space Station
objects crossing your sky now

BRIO

Track BRIO now!
10-day predictions


NORAD ID: 43813
Int'l Code: 2018-099BH
Perigee: 266.0 km
Apogee: 280.1 km
Inclination: 97.5 °
Period: 89.8 minutes
Semi major axis: 6644 km
RCS: Unknown
Launch date: December 3, 2018
Source: United States (US)
Launch site: AIR FORCE WESTERN TEST RANGE (AFWTR)
Your satellite tracking list
STARLINK-1713
Track 1 satellite(s)




NASA's NSSDC Master Catalog

Two Line Element Set (TLE):
1 43813U 18099BH  25186.29488402  .01339114  10324-2  22347-2 0  9999
2 43813  97.5030 272.3152 0010568 274.5938  85.4134 16.03070206361634
Source of the keplerian elements: AFSPC